Location: Ridgway Nature & Science Center
(38.1460°N, 107.7553°W)
Time: 19:13:45
(UTC-06:00)

Hubble Space Telescope - Visible Passes

Search period start: 08 August 2022 00:00
Search period end: 18 August 2022 00:00
Orbit: 532 x 535 km, 28.5° (Epoch: 08 August)

Date Brightness Start Highest point End Pass type
(mag) Time Alt. Az. Time Alt. Az. Time Alt. Az.
08 Aug 2.2 21:30:16 10° SW 21:33:21 21° S 21:33:58 20° SSE visible
09 Aug 2.3 21:18:07 10° SW 21:21:14 21° S 21:22:35 18° SSE visible
10 Aug 2.3 21:05:59 10° SW 21:09:07 21° S 21:11:08 15° SE visible
11 Aug 2.4 20:53:54 10° SW 20:56:59 20° S 20:59:39 12° SE visible
12 Aug 2.5 20:41:50 10° SW 20:44:51 20° S 20:47:51 10° SE visible
